182P/LONEOS (2002)

Japanese version
Home page
Updated on March 7, 2007

---------------------------------------------------------------------

* Profile

Designation 182P/2001 WF2
Discovery Date November 17, 2001
Magnitude 18.9 mag
Discoverer Lowell Observatory Near-Earth Object Search

* Orbital Elements

Epoch 2002 Feb. 15.0 TT = JDT 2452320.5
T 2002 Jan. 29.84804 TT                                 MPC
q   0.9763511            (2000.0)            P               Q
n   0.19656246     Peri.   51.35236     -0.56192571     -0.77787496
a   2.9295595      Node    75.13262     +0.63927749     -0.62422348
e   0.6667243      Incl.   16.92268     +0.52494170     -0.07249552
P   5.01

* Finding Charts

* Magnitudes Graph

        H = 19.0  G = 0.15

---------------------------------------------------------------------

The orbital elements are calculated by Dr. Brian G. Marsden and printed on M.P.E.C. 2002-C94.
The charts are made with StellaNavigator Ver.2.0 for Windows (AstroArts / ASCII).
The magnitudes graphs are made with Comet for Windows.

---------------------------------------------------------------------

Copyright(C) Seiichi Yoshida (comet@aerith.net). All rights reserved.